Date,TemperatureHighF,TemperatureAvgF,TemperatureLowF,DewpointHighF,DewpointAvgF,DewpointLowF,HumidityHigh,HumidityAvg,HumidityLow,PressureMaxIn,PressureMinIn,WindSpeedMaxMPH,WindSpeedAvgMPH,GustSpeedMaxMPH,PrecipitationSumIn
2013-1-1,35.3,28.9,16.4,26.6,19.2,6.9,78,67,55,29.94,29.74,7,3,14,0.00
2013-1-2,28.1,17.7,10.3,17.3,9.2,1.5,79,69,58,30.13,29.93,5,1,16,0.00
2013-1-3,23.8,13.8,2.6,12.8,1.9,-6.1,72,60,38,30.17,30.02,3,1,14,0.00
2013-1-4,36.4,29.0,20.7,24.8,20.5,13.2,79,71,60,30.01,29.84,10,3,20,0.01
2013-1-5,39.7,31.4,21.7,26.4,21.8,16.2,82,68,52,30.27,29.87,5,1,16,0.31
2013-1-6,40.1,31.1,22.2,30.1,25.3,17.5,91,79,64,30.24,29.96,5,1,10,0.21
2013-1-7,37.6,30.6,20.6,28.2,22.6,14.8,88,73,50,30.41,29.99,3,1,12,0.10
2013-1-8,43.8,33.2,20.0,30.4,25.4,15.1,84,73,56,30.38,30.29,9,3,18,0.05
2013-1-9,41.6,33.9,22.3,36.6,27.6,19.3,93,78,59,30.41,30.03,8,2,18,0.02
2013-1-10,44.4,37.6,29.0,29.7,26.1,23.3,79,64,49,30.55,30.07,9,2,15,0.00
2013-1-11,36.1,31.3,24.3,31.9,26.5,20.5,93,83,69,30.55,30.23,1,0,13,0.13
2013-1-12,40.7,37.1,33.8,39.9,35.9,32.1,99,95,93,30.24,30.13,1,0,3,0.03
2013-1-13,47.7,43.7,39.0,46.9,42.9,38.2,98,97,96,30.16,30.00,6,2,13,0.01
2013-1-14,57.0,47.4,37.4,51.7,41.5,29.2,98,81,49,30.26,29.86,6,2,18,0.00
2013-1-15,39.9,35.1,30.2,29.2,26.6,24.8,82,71,58,30.33,30.22,2,0,10,0.00
2013-1-16,32.4,31.2,28.4,30.9,28.0,24.3,94,88,74,30.26,29.83,0,0,3,0.01
2013-1-17,39.4,33.0,27.7,32.6,27.1,17.6,95,80,62,30.10,29.85,4,1,9,0.24
2013-1-18,27.6,21.2,16.1,17.0,5.5,0.8,64,50,38,30.46,30.06,6,1,11,0.00
2013-1-19,45.5,34.7,19.3,31.3,22.6,6.9,79,61,46,30.39,29.89,10,4,15,0.05
2013-1-20,50.4,38.3,25.5,32.5,25.9,11.0,79,62,36,29.93,29.56,16,4,25,0.00
2013-1-21,26.9,22.3,18.0,17.9,11.5,5.7,88,64,47,30.10,29.81,4,1,10,0.00
2013-1-22,22.4,17.3,9.8,17.6,7.5,-0.7,90,67,42,30.10,29.77,5,1,13,0.01
2013-1-23,15.3,8.9,4.1,2.2,-3.8,-8.2,72,56,41,30.16,30.08,6,2,12,0.00
2013-1-24,20.2,9.3,0.5,-1.5,-6.0,-9.2,65,50,36,30.27,30.11,6,2,13,0.00
2013-1-25,22.8,14.0,5.7,10.6,-3.0,-8.3,80,47,32,30.34,30.08,3,1,13,0.00
2013-1-26,24.2,14.4,6.9,11.1,4.6,-3.0,85,67,40,30.28,30.03,4,1,14,0.03
2013-1-27,30.5,18.6,8.8,8.7,4.3,1.1,75,55,34,30.50,30.27,3,1,14,0.00
2013-1-28,28.7,22.6,15.7,23.8,13.4,3.5,92,69,44,30.48,30.04,3,0,4,0.00
2013-1-29,33.2,28.9,23.7,30.8,26.8,21.7,100,92,88,30.21,30.03,1,0,3,0.08
2013-1-30,57.3,46.3,32.1,55.9,45.4,30.8,98,96,94,30.17,29.44,9,3,18,0.29
2013-1-31,59.3,45.8,28.7,57.9,36.9,15.8,96,72,45,29.59,28.97,14,6,24,0.71
2013-2-1,32.6,26.3,19.0,16.8,10.2,5.1,65,51,38,30.10,29.59,8,3,17,0.00
2013-2-2,29.0,22.1,14.5,13.9,7.9,2.9,68,54,42,30.26,30.06,6,2,12,0.00
2013-2-3,27.2,23.1,17.5,21.2,18.5,13.9,92,83,70,30.07,29.75,3,0,3,0.00
2013-2-4,28.2,21.6,17.7,18.3,12.1,8.0,88,67,45,29.96,29.75,7,2,15,0.01
2013-2-5,28.2,23.1,18.5,19.9,14.5,9.1,88,70,57,30.04,29.95,2,0,13,0.00
2013-2-6,37.3,27.9,22.5,26.9,18.5,5.6,93,70,44,30.31,29.93,4,1,16,0.02
2013-2-7,31.7,23.4,14.3,10.6,6.7,4.6,73,50,33,30.54,30.32,2,0,6,0.00
2013-2-8,27.6,22.9,16.2,24.1,18.0,10.4,91,82,57,30.50,29.64,8,1,15,0.00
2013-2-9,23.7,17.9,11.7,20.9,15.3,8.1,93,89,85,30.24,29.61,10,5,18,0.03
2013-2-10,38.1,21.9,7.8,26.1,11.2,4.0,87,67,32,30.43,30.24,3,1,16,0.38
2013-2-11,42.8,32.8,23.2,41.7,27.6,7.8,97,82,50,30.37,29.63,3,0,9,0.21
2013-2-12,41.8,36.6,31.7,37.8,29.4,24.7,96,76,61,29.90,29.64,7,2,19,0.09
2013-2-13,41.1,33.3,27.6,27.7,24.3,21.5,80,70,54,29.88,29.71,3,1,7,0.03
2013-2-14,43.1,34.1,25.1,25.1,23.0,19.5,81,65,44,30.00,29.73,3,0,6,0.00
2013-2-15,50.8,38.4,28.5,35.2,30.4,23.8,94,74,53,30.00,29.91,7,2,12,0.00
2013-2-16,37.8,33.2,27.6,32.9,28.2,18.8,95,82,64,29.96,29.73,4,1,9,0.05
2013-2-17,27.4,19.9,13.6,20.1,10.4,1.9,88,67,50,29.73,29.44,9,4,26,0.00
2013-2-18,29.5,19.7,10.8,8.1,3.3,0.5,63,50,34,30.15,29.73,7,3,20,0.04
2013-2-19,45.9,32.8,21.4,39.2,22.5,3.1,95,67,44,30.20,29.60,6,1,12,0.25
2013-2-20,38.5,29.8,23.5,37.1,20.1,11.6,95,68,46,29.81,29.56,7,3,24,0.00
2013-2-21,33.5,26.0,21.7,16.8,14.6,11.7,74,62,48,30.24,29.79,7,3,21,0.00
2013-2-22,39.2,30.0,19.8,23.4,20.2,15.2,86,68,47,30.40,30.24,4,1,17,0.00
2013-2-23,35.8,32.1,28.1,30.4,27.2,21.7,92,82,74,30.34,29.98,2,0,12,0.00
2013-2-24,35.3,32.6,30.9,33.9,31.1,29.5,99,94,93,29.92,29.72,2,0,9,0.22
2013-2-25,40.1,32.5,23.1,36.6,30.1,21.6,97,91,79,30.26,29.91,2,0,7,0.12
2013-2-26,42.3,35.7,31.6,36.0,30.6,28.2,100,82,64,30.34,30.16,1,0,4,0.79
2013-2-27,39.5,35.5,32.6,38.5,34.0,29.5,100,94,87,30.16,29.60,4,1,16,1.39
2013-2-28,44.1,35.8,31.4,38.7,33.5,29.1,97,91,80,29.65,29.55,2,0,13,0.03
2013-3-1,41.0,36.0,30.1,33.4,30.2,26.7,95,80,66,29.70,29.55,3,1,5,0.00
2013-3-2,41.9,35.3,30.8,30.2,27.8,25.7,81,74,62,29.70,29.64,3,1,7,0.00
2013-3-3,41.4,33.3,29.4,31.5,27.6,24.0,91,80,64,29.66,29.59,2,1,6,0.00
2013-3-4,40.3,33.7,25.5,26.8,24.3,19.6,78,68,57,29.77,29.61,5,3,15,0.02
2013-3-5,46.6,35.6,27.8,31.6,26.9,21.8,87,71,53,30.08,29.77,4,1,18,0.00
2013-3-6,38.2,34.4,32.2,34.2,32.1,30.4,95,91,83,30.10,30.05,4,1,12,0.13
2013-3-7,33.9,31.1,28.8,31.3,28.9,27.0,94,92,87,30.06,30.01,5,3,16,0.01
2013-3-8,35.1,31.3,28.3,32.8,28.7,24.9,95,91,70,30.18,29.96,5,3,14,0.02
2013-3-9,52.2,36.9,25.8,32.0,24.8,21.0,88,64,33,30.36,30.17,3,1,11,0.95
2013-3-10,46.3,34.7,23.5,36.0,28.4,21.0,96,79,58,30.42,30.31,2,0,11,0.00
2013-3-11,51.2,40.9,33.3,39.2,34.7,30.7,91,80,57,30.34,30.15,5,2,9,0.00
2013-3-12,53.7,47.2,40.7,50.9,45.6,38.3,97,94,85,30.16,29.73,7,2,14,0.51
2013-3-13,50.1,41.0,32.9,45.0,31.1,22.0,95,71,38,29.80,29.72,5,2,13,0.00
2013-3-14,34.4,28.1,21.0,17.9,13.2,8.5,64,53,48,29.86,29.73,5,3,16,0.00
2013-3-15,40.4,28.6,17.4,27.8,16.2,9.0,84,61,35,29.89,29.66,8,2,14,0.00
2013-3-16,38.7,31.8,23.7,27.2,18.3,12.5,84,59,37,29.89,29.70,2,0,6,0.00
2013-3-17,39.0,29.5,21.6,17.7,13.6,7.8,76,53,30,30.32,29.89,5,1,11,0.00
2013-3-18,37.7,26.3,13.4,25.1,9.2,3.5,88,51,25,30.47,30.23,5,0,9,0.00
2013-3-19,34.6,30.7,26.8,33.5,28.8,24.6,99,93,88,30.23,29.65,3,1,7,0.12
2013-3-20,27.4,27.3,27.3,25.9,25.8,25.8,94,94,94,29.73,29.73,0,0,4,0.00
2013-3-23,41.7,33.4,26.6,23.8,21.5,19.0,79,62,45,29.83,29.68,7,3,26,0.09
2013-3-24,47.9,36.7,28.2,29.3,24.3,19.9,76,62,43,29.84,29.74,5,1,15,0.01
2013-3-25,43.5,35.5,29.3,32.6,28.1,23.1,80,74,64,29.78,29.53,3,1,12,0.00
2013-3-26,48.4,38.7,33.2,32.4,27.1,21.7,80,64,40,29.80,29.56,4,1,13,0.00
2013-3-27,54.5,40.7,29.1,31.0,26.2,21.7,75,58,36,29.89,29.77,5,1,14,0.00
2013-3-28,50.6,41.7,34.4,36.5,32.9,30.5,93,72,50,30.04,29.89,3,1,9,0.02
2013-3-29,54.9,41.2,33.3,37.3,32.0,29.3,88,71,40,30.07,29.99,3,1,12,0.00
2013-3-30,58.0,45.8,33.3,32.7,26.6,20.9,83,51,24,30.11,30.02,4,1,17,0.00
2013-3-31,57.8,44.4,28.9,39.5,28.4,23.3,87,57,29,30.13,29.74,9,2,23,0.06
2013-4-1,61.5,46.2,36.3,45.3,38.8,17.6,95,77,46,29.75,29.52,8,2,17,0.22
2013-4-2,40.6,34.0,26.7,21.8,16.8,12.8,68,50,37,29.97,29.85,10,4,26,0.00
2013-4-3,45.5,35.0,27.5,20.1,15.9,12.6,67,47,30,30.19,29.96,7,4,16,0.00
2013-4-4,55.6,40.4,26.8,26.7,19.2,14.4,68,45,25,30.32,30.06,7,2,14,0.00
2013-4-5,62.8,44.6,35.1,30.6,27.6,24.2,78,55,24,30.06,29.66,5,3,12,0.00
2013-4-6,48.1,37.7,29.4,26.5,14.4,7.7,67,41,20,30.35,29.90,6,2,17,0.00
2013-4-7,55.0,41.4,27.8,40.0,27.3,12.5,83,58,31,30.34,30.02,11,4,21,0.00
2013-4-8,67.0,53.0,41.6,42.8,40.5,36.8,94,66,33,30.09,29.97,4,1,10,0.00
2013-4-9,71.8,57.0,45.3,56.2,45.4,40.3,96,68,42,30.07,29.87,6,2,12,0.07
2013-4-10,66.7,53.3,45.4,54.1,46.9,43.2,94,80,57,30.00,29.85,3,0,7,0.25
2013-4-11,57.2,49.4,45.0,46.4,40.3,29.3,95,74,41,30.08,29.83,2,1,12,0.06
2013-4-12,39.6,36.9,35.7,35.9,34.6,33.4,95,91,81,30.16,29.81,4,1,16,0.55
2013-4-13,52.9,43.4,33.9,40.9,36.1,32.6,96,77,53,29.96,29.77,4,1,10,0.11
2013-4-14,52.1,43.4,34.1,39.3,32.6,26.3,90,67,44,30.24,29.93,5,1,13,0.00
2013-4-15,60.5,45.0,30.7,38.2,32.3,25.5,89,64,41,30.40,30.23,3,1,7,0.00
2013-4-16,65.2,51.2,37.7,51.1,42.5,33.8,90,73,50,30.40,30.07,10,4,21,0.01
2013-4-17,68.3,57.8,47.8,52.3,40.2,31.9,93,56,28,30.32,30.07,7,2,15,0.01
2013-4-18,63.6,54.6,37.6,44.7,35.9,30.6,80,52,36,30.42,30.14,8,3,15,0.00
2013-4-19,73.6,61.2,51.0,62.5,57.1,45.0,96,87,64,30.14,29.65,10,5,21,0.00
2013-4-20,64.0,52.4,41.0,61.9,41.3,25.0,95,69,38,30.23,29.61,9,3,19,0.47
2013-4-21,55.8,43.1,31.3,30.0,24.4,20.9,72,50,28,30.68,30.24,6,1,14,0.00
2013-4-22,56.0,41.4,31.6,35.4,30.5,26.5,86,67,36,30.75,30.59,4,1,10,0.00
2013-4-23,40.5,38.6,36.5,39.2,35.6,30.6,96,89,76,30.60,30.13,3,1,8,0.01
2013-4-24,75.5,54.8,39.3,54.3,44.2,38.0,97,73,27,30.13,29.81,7,3,14,0.01
2013-4-25,65.2,54.2,43.3,51.3,37.7,25.1,93,58,26,30.28,29.83,9,2,16,0.02
2013-4-26,66.3,50.6,38.0,43.2,34.9,28.2,74,56,38,30.43,30.28,3,1,16,0.00
2013-4-27,66.8,50.7,34.8,42.0,36.3,31.3,92,62,32,30.43,30.29,4,1,7,0.00
2013-4-28,74.0,48.7,37.2,43.0,24.0,-99.9,92,51,30,30.34,30.21,5,1,10,0.05
2013-4-29,69.0,56.8,46.9,48.1,38.4,25.4,85,54,30,30.27,30.19,9,2,15,0.00
2013-4-30,71.5,56.4,44.6,37.6,32.0,21.4,76,43,20,30.36,30.25,3,0,7,0.00
2013-5-1,73.3,56.4,38.3,43.3,35.9,30.1,76,49,29,30.47,30.36,5,0,7,0.00
2013-5-2,81.4,58.9,45.0,48.1,41.9,36.3,82,57,26,30.49,30.32,4,1,6,0.00
2013-5-3,65.2,52.0,39.7,47.8,41.6,35.9,89,69,49,30.52,30.39,3,1,6,0.00
2013-5-4,67.6,52.1,40.1,49.2,39.6,31.4,94,66,37,30.39,30.29,2,1,6,0.00
2013-5-5,65.7,49.6,35.0,44.8,38.9,32.0,96,69,41,30.34,30.24,3,0,6,0.00
2013-5-6,74.4,56.0,37.3,51.9,43.4,34.6,96,67,33,30.29,30.14,3,1,7,0.00
2013-5-7,79.1,63.9,46.5,59.4,51.8,42.9,93,67,41,30.18,30.08,4,1,10,0.00
2013-5-8,71.8,61.2,51.6,66.0,57.9,49.4,97,89,71,30.19,30.04,5,0,10,0.45
2013-5-9,66.5,59.8,55.6,62.7,58.2,54.3,98,94,78,30.05,29.88,2,0,3,0.51
2013-5-10,80.5,65.5,51.2,61.7,55.4,50.1,98,73,41,29.97,29.89,5,1,7,0.00
2013-5-11,67.6,62.1,57.8,62.4,58.7,54.6,96,89,73,29.92,29.69,6,2,14,0.12
2013-5-12,69.3,58.9,47.0,59.7,51.2,33.8,97,77,49,29.83,29.58,5,1,11,0.08
2013-5-13,58.0,48.4,41.0,37.5,32.4,29.5,70,54,37,30.04,29.83,6,2,15,0.00
2013-5-14,57.4,48.3,39.3,39.1,34.1,31.4,78,59,40,30.07,30.00,2,0,10,0.00
2013-5-15,64.0,50.0,36.8,51.8,40.8,31.9,93,73,40,30.07,29.69,6,2,12,0.04
2013-5-16,81.2,66.7,53.4,51.9,45.0,36.7,92,50,27,29.80,29.65,6,2,22,0.00
2013-5-17,71.6,59.1,47.0,48.5,43.1,38.7,84,57,35,30.22,29.80,2,1,7,0.00
2013-5-18,71.8,58.9,44.8,48.8,44.4,40.3,89,62,34,30.31,30.22,5,1,14,0.00
2013-5-19,70.0,57.9,49.4,54.7,50.7,45.8,96,78,52,30.34,30.21,5,1,12,0.08
2013-5-20,81.4,67.6,54.7,68.1,61.2,53.6,98,82,59,30.21,29.93,3,1,9,0.02
2013-5-21,89.4,68.5,50.9,71.0,61.0,49.3,97,79,48,30.01,29.83,4,1,9,0.31
2013-5-22,77.9,60.3,49.6,70.2,57.0,48.3,97,89,73,30.06,29.86,2,0,4,0.17
2013-5-23,71.2,64.1,55.2,68.3,62.2,53.3,98,93,86,29.93,29.80,5,2,14,0.19
2013-5-24,71.1,61.1,48.3,65.7,58.1,47.1,97,90,80,29.83,29.71,4,1,9,0.63
2013-5-25,50.6,46.2,40.2,49.6,45.2,38.9,97,96,95,29.84,29.74,2,1,8,0.43
2013-5-26,57.5,47.5,38.5,44.8,40.6,36.8,95,78,54,30.13,29.75,4,2,11,0.04
2013-5-27,72.0,56.6,39.8,46.9,41.8,37.1,98,62,32,30.17,30.09,5,1,14,0.00
2013-5-28,75.3,65.2,43.8,54.3,47.8,41.6,94,56,35,30.25,30.16,2,1,6,0.00
2013-5-29,71.4,62.5,56.8,67.1,60.3,53.9,97,93,83,30.19,29.99,5,0,7,0.94
2013-5-30,85.8,74.3,62.5,72.6,67.4,61.6,100,81,59,30.10,30.02,3,1,7,0.00
2013-5-31,92.3,78.7,62.6,72.6,66.3,60.8,98,69,43,30.10,29.94,4,1,10,0.00
2013-6-1,91.9,80.0,67.3,71.1,66.4,62.0,84,65,40,29.98,29.86,5,2,17,0.00
2013-6-2,88.4,77.8,67.6,71.3,67.4,64.1,92,72,47,29.89,29.72,10,4,31,0.01
2013-6-3,77.4,68.0,59.3,67.9,62.7,46.8,97,84,62,29.85,29.77,3,0,15,0.66
2013-6-4,72.0,61.0,50.2,53.3,47.3,40.6,81,61,44,30.10,29.84,2,1,6,0.00
2013-6-5,74.1,61.3,48.6,54.5,49.0,44.9,90,66,39,30.21,30.11,3,0,11,0.00
2013-6-6,73.2,62.5,52.3,54.5,50.9,46.1,92,67,48,30.20,30.11,4,1,9,0.04
2013-6-7,58.0,55.2,52.1,57.4,54.1,51.3,98,96,92,30.11,29.82,1,0,7,1.73
2013-6-8,77.3,62.6,51.4,67.0,58.0,50.6,98,86,66,30.02,29.64,6,1,15,0.68
2013-6-9,78.4,67.0,56.4,62.4,57.6,53.8,92,74,51,30.18,30.02,3,1,13,0.00
2013-6-10,69.0,61.7,55.7,63.2,58.6,53.4,96,90,73,30.20,30.01,1,0,1,0.76
2013-6-11,61.6,58.0,55.6,59.6,56.8,54.8,98,96,90,30.00,29.58,1,0,4,0.87
2013-6-12,69.8,62.0,55.4,59.6,56.0,52.1,97,82,64,29.84,29.57,3,1,12,0.00
2013-6-13,55.3,53.4,52.2,52.4,50.9,50.0,93,91,90,29.83,29.80,0,0,9,0.00
2013-6-14,72.4,59.3,50.5,62.5,54.4,49.7,98,85,58,29.80,29.65,2,0,7,0.67
2013-6-15,77.8,65.6,54.7,56.5,52.5,48.1,88,65,38,29.96,29.80,4,0,13,0.00
2013-6-16,74.2,66.0,55.5,63.1,54.5,45.2,79,67,50,29.95,29.72,5,1,14,0.00
2013-6-17,83.3,69.5,58.6,66.2,61.0,55.7,95,77,48,29.91,29.78,6,1,16,0.35
2013-6-18,74.9,62.2,57.5,67.9,60.2,56.7,97,94,77,29.95,29.88,3,0,6,1.19
2013-6-19,75.6,63.4,54.0,59.7,55.0,49.6,98,77,49,30.16,29.92,1,0,6,0.11
2013-6-20,78.0,65.8,50.0,59.9,52.9,46.7,91,66,39,30.27,30.16,3,1,6,0.00
2013-6-21,82.7,70.3,57.4,67.5,60.7,53.8,89,73,53,30.26,30.20,5,2,11,0.00
2013-6-22,83.1,72.1,61.8,66.4,60.6,56.6,84,69,45,30.23,30.12,6,2,15,0.00
2013-6-23,88.1,76.0,63.7,74.8,66.4,57.4,85,73,59,30.16,30.01,5,2,11,0.00
2013-6-24,91.5,78.6,69.2,76.7,70.9,66.8,94,79,58,30.04,29.88,3,1,12,0.02
2013-6-25,89.7,78.1,67.7,75.7,69.0,64.4,93,75,52,29.94,29.74,6,1,13,0.00
2013-6-26,84.1,75.4,68.6,75.1,69.6,65.6,93,83,64,29.85,29.73,3,0,13,0.01
2013-6-27,72.3,67.8,64.3,70.8,66.0,63.1,97,94,87,29.86,29.76,1,0,6,0.05
2013-6-28,80.0,69.6,60.5,74.3,67.0,59.6,99,92,78,29.77,29.50,5,1,12,0.39
2013-6-29,82.8,74.2,69.7,71.6,69.1,67.6,97,85,64,29.73,29.52,5,2,13,0.00
2013-6-30,85.5,75.4,69.4,73.3,69.9,67.3,95,84,64,29.94,29.73,4,2,12,0.00
2013-7-1,79.5,73.9,70.9,75.0,71.8,69.4,97,93,83,30.09,29.95,3,1,11,0.19
2013-7-2,82.1,75.3,67.3,74.6,71.3,63.9,96,88,76,30.20,30.08,4,1,10,0.00
2013-7-3,87.4,75.5,63.9,76.2,70.0,61.9,98,84,64,30.23,30.16,5,2,12,0.00
2013-7-4,91.6,81.2,72.7,77.5,73.7,70.9,95,79,60,30.23,30.11,5,2,11,0.00
2013-7-5,92.1,83.1,74.9,78.2,74.2,71.7,91,76,57,30.17,30.04,4,2,12,0.00
2013-7-6,90.4,81.1,74.9,77.6,73.2,68.2,90,78,60,30.09,29.99,3,1,13,0.00
2013-7-7,84.0,74.5,71.9,73.6,68.8,65.9,93,82,71,30.04,29.93,1,0,5,0.00
2013-7-8,84.4,74.4,72.1,76.4,72.0,70.4,96,92,77,29.97,29.91,1,0,4,0.00
2013-7-9,73.9,69.9,66.1,70.5,67.3,64.6,97,92,86,30.11,30.04,1,0,5,0.01
2013-7-10,85.9,73.9,67.1,76.4,70.8,65.3,98,91,70,30.08,29.80,5,1,15,0.15
2013-7-11,82.4,75.3,71.5,75.2,72.2,69.4,98,91,72,29.92,29.79,3,1,12,0.14
2013-7-12,78.7,70.6,65.9,67.9,63.3,58.7,92,78,62,30.20,29.94,1,0,7,0.00
2013-7-13,74.9,69.3,63.8,71.9,66.4,59.7,97,91,80,30.32,30.21,1,0,4,0.03
2013-7-14,77.1,76.2,75.7,72.9,72.8,72.5,91,89,87,30.22,30.21,0,0,0,0.00
2013-7-15,93.2,80.8,71.7,78.9,73.3,69.6,96,79,52,30.22,30.11,0,0,2,0.00
2013-7-16,94.0,80.4,68.8,74.3,70.6,65.7,91,74,49,30.17,30.11,0,0,1,0.00
2013-7-17,93.2,81.8,70.8,76.6,72.0,67.7,91,74,49,30.19,30.01,0,0,0,0.00
2013-7-18,95.5,84.3,76.6,78.0,74.1,71.6,88,73,49,30.02,29.93,0,0,0,0.00
2013-7-19,96.1,84.9,74.3,79.0,75.3,71.0,93,75,51,29.95,29.72,0,0,0,0.00
2013-7-20,91.4,82.1,73.2,78.5,74.0,63.5,92,77,58,29.82,29.66,0,0,0,0.04
2013-7-21,84.8,75.0,67.7,70.0,65.3,62.1,88,73,53,29.95,29.82,0,0,0,0.00
2013-7-22,85.9,72.9,64.9,72.6,67.4,63.1,96,84,59,30.03,29.89,0,0,0,0.00
2013-7-23,82.4,72.3,68.8,79.2,70.9,67.1,98,95,84,29.89,29.55,0,0,0,1.34
2013-7-24,83.6,74.7,67.3,73.2,67.8,58.2,98,81,58,29.97,29.60,0,0,0,0.00
2013-7-25,66.9,60.2,58.3,58.8,54.3,49.3,96,81,69,30.11,29.97,0,0,0,0.10
2013-7-26,73.3,66.5,60.8,69.1,63.8,60.0,98,91,81,30.04,29.98,0,0,0,0.36
2013-7-27,82.0,70.6,60.2,69.5,63.6,58.4,97,80,54,30.09,30.01,0,0,0,0.00
2013-7-28,83.5,72.3,63.4,72.6,66.9,60.9,95,84,59,30.04,29.97,0,0,0,0.00
2013-7-29,83.7,73.4,66.2,73.2,67.8,62.1,97,84,65,30.07,29.98,0,0,0,0.19
2013-7-30,81.8,71.3,62.2,66.1,60.3,56.7,88,69,48,30.12,30.06,0,0,0,0.00
2013-7-31,80.2,70.1,60.6,66.1,60.9,56.7,93,74,49,30.16,30.05,0,0,0,0.00
2013-8-1,79.4,67.9,61.8,67.5,63.4,59.8,96,86,66,30.07,29.89,0,0,0,0.10
2013-8-2,80.8,71.0,63.5,70.4,64.4,60.8,98,81,54,29.92,29.82,0,0,0,0.85
2013-8-3,77.5,68.8,63.0,65.6,63.1,61.0,95,83,62,29.89,29.81,0,0,0,0.00
2013-8-4,79.0,66.8,57.2,63.5,58.7,54.1,92,76,54,29.93,29.80,0,0,0,0.00
2013-8-5,76.5,64.2,54.9,55.3,52.0,47.8,88,67,38,30.08,29.92,0,0,0,0.00
2013-8-6,78.0,64.9,50.6,59.8,53.4,47.2,93,69,43,30.17,30.07,0,0,0,0.00
2013-8-7,78.9,68.2,57.3,61.4,57.7,53.3,95,72,44,30.20,30.13,0,0,0,0.00
2013-8-8,79.9,70.9,64.4,71.9,67.0,58.9,97,88,76,30.14,30.03,0,0,0,0.07
2013-8-9,74.7,72.1,70.2,74.1,70.6,68.5,98,95,90,30.05,29.79,0,0,0,1.18
2013-8-10,82.1,72.1,64.1,70.1,62.0,53.4,98,73,44,30.04,29.83,0,0,0,0.01
2013-8-11,78.5,66.5,53.5,61.5,56.4,50.7,93,72,50,30.11,30.03,0,0,0,0.00
2013-8-12,81.1,69.8,59.5,63.8,60.4,57.2,94,74,49,30.06,29.95,0,0,0,0.00
2013-8-13,73.3,68.3,65.4,67.6,64.6,61.1,94,88,78,29.95,29.72,0,0,0,0.02
2013-8-14,72.8,64.5,57.6,63.5,56.0,50.2,94,75,56,30.00,29.70,0,0,0,0.00
2013-8-15,75.6,64.1,52.6,58.3,53.7,49.5,92,71,48,30.14,30.00,0,0,0,0.00
2013-8-16,58.4,55.9,54.2,53.6,51.9,50.8,90,87,84,30.17,30.14,0,0,0,0.00
2013-8-17,61.3,61.2,61.2,56.8,56.8,56.7,85,85,85,30.23,30.23,0,0,0,0.00
2013-8-18,68.6,66.4,64.3,61.3,60.8,60.4,88,82,76,30.15,30.10,0,0,0,0.00
2013-8-19,79.6,69.9,60.8,66.8,61.7,57.9,92,76,57,30.11,29.98,0,0,0,0.00
2013-8-20,85.0,73.3,62.2,67.0,63.2,59.3,92,72,48,30.12,30.01,0,0,0,0.00
2013-8-21,86.3,73.8,61.6,69.4,64.2,58.8,94,74,47,30.17,30.05,0,0,0,0.00
2013-8-22,84.1,74.2,65.3,73.3,67.9,62.3,93,81,62,30.06,29.85,0,0,0,0.00
2013-8-23,81.2,71.9,62.7,68.9,61.3,52.5,92,71,46,30.14,29.85,0,0,0,0.00
2013-8-24,78.1,65.3,54.7,57.3,52.3,49.3,84,65,39,30.36,30.15,0,0,0,0.00
2013-8-25,81.4,67.7,53.2,61.8,54.6,50.2,95,66,36,30.39,30.21,0,0,0,0.00
2013-8-26,79.6,70.9,64.6,68.2,62.7,57.3,89,75,60,30.21,29.90,0,0,0,0.04
2013-8-27,83.8,73.4,68.0,73.8,69.0,64.7,98,87,64,29.93,29.85,0,0,0,0.21
2013-8-28,87.0,73.9,63.9,73.3,66.7,61.9,97,79,55,29.98,29.87,0,0,0,0.00
2013-8-29,68.2,65.0,60.8,65.4,62.5,58.5,96,92,88,30.10,29.95,0,0,0,0.02
2013-8-30,82.2,69.8,59.9,70.1,64.3,57.8,95,84,63,30.06,29.86,0,0,0,0.00
2013-8-31,77.9,73.4,68.6,73.1,70.5,66.8,96,91,85,29.86,29.81,0,0,0,0.00
2013-9-1,77.6,72.1,67.8,75.1,70.6,66.5,98,95,90,29.91,29.81,0,0,0,0.25
2013-9-2,75.9,72.4,70.6,75.0,71.2,69.6,98,96,92,29.89,29.74,0,0,0,0.23
2013-9-3,78.3,71.0,62.3,71.0,67.0,57.1,98,88,74,29.85,29.72,0,0,0,0.01
2013-9-4,79.1,68.1,58.9,62.5,58.2,55.7,95,72,50,29.95,29.84,0,0,0,0.00
2013-9-5,71.7,63.5,51.5,62.2,54.6,45.6,89,74,42,30.17,29.89,0,0,0,0.00
2013-9-6,68.6,56.3,44.5,48.2,44.4,40.6,88,67,40,30.27,30.12,0,0,0,0.00
2013-9-7,77.5,64.0,52.2,57.9,51.1,44.4,80,64,40,30.12,29.89,0,0,0,0.00
2013-9-8,75.8,64.7,49.6,64.0,53.9,43.2,89,70,45,30.12,29.79,0,0,0,0.00
2013-9-9,68.3,56.3,44.0,51.3,45.6,40.4,88,69,45,30.26,30.12,0,0,0,0.00
2013-9-10,74.0,65.5,56.0,70.0,62.6,50.8,96,90,81,30.18,30.06,0,0,0,0.07
2013-9-11,93.1,79.1,69.6,78.8,72.8,67.5,98,83,57,30.11,29.97,0,0,0,0.00
2013-9-12,86.4,75.7,66.9,76.0,70.5,65.2,95,84,65,29.99,29.69,0,0,0,1.17
2013-9-13,77.7,67.7,59.1,69.2,63.9,54.7,98,88,66,29.79,29.60,0,0,0,0.06
2013-9-14,69.1,59.5,52.8,57.3,53.0,49.9,91,80,64,30.09,29.79,0,0,0,0.00
2013-9-15,69.3,58.0,47.1,53.5,49.7,45.2,96,76,46,30.20,30.08,0,0,0,0.00
2013-9-16,57.7,56.3,55.8,52.6,50.8,50.0,84,82,79,30.09,30.04,0,0,0,0.00
2013-9-21,66.8,66.8,66.7,63.4,63.2,63.1,89,88,88,29.81,29.81,0,0,0,0.00
2013-9-23,64.4,56.6,45.5,48.5,45.2,41.3,86,67,55,30.04,29.94,0,0,0,0.00
2013-9-24,67.7,53.0,41.9,49.6,43.4,38.3,89,72,43,30.04,29.85,0,0,0,0.00
2013-9-25,69.9,56.5,46.6,56.5,49.3,43.2,89,78,58,30.01,29.90,0,0,0,0.00
2013-9-26,66.0,57.3,52.6,53.3,50.2,48.4,90,78,57,30.15,30.01,0,0,0,0.00
2013-9-27,64.9,57.2,51.5,56.0,52.3,49.5,93,84,70,30.29,30.15,0,0,0,0.00
2013-9-28,73.6,58.0,48.5,61.2,52.3,46.8,97,83,57,30.36,30.29,0,0,0,0.00
2013-9-29,68.3,55.2,44.0,54.0,47.6,41.8,97,78,44,30.30,30.15,0,0,0,0.00
2013-9-30,69.1,51.8,40.4,56.0,46.5,38.4,97,84,56,30.15,30.00,0,0,0,0.00
2013-10-1,77.5,61.6,47.6,60.3,53.4,45.6,97,77,47,30.00,29.88,0,0,0,0.00
2013-10-2,78.8,66.8,55.0,64.1,58.2,52.3,93,75,58,29.93,29.88,0,0,0,0.00
2013-10-3,75.0,61.3,51.0,56.0,52.1,48.2,95,74,43,30.11,29.98,0,0,0,0.00
2013-10-4,63.1,57.9,53.0,59.2,54.4,48.1,96,88,79,30.13,30.06,0,0,0,0.19
2013-10-5,68.7,61.7,57.5,62.4,58.5,56.1,97,89,79,30.15,30.08,0,0,0,0.01
2013-10-6,60.0,55.9,53.4,57.4,54.7,52.3,100,96,90,30.24,30.13,0,0,0,0.36
2013-10-7,74.8,62.5,55.0,70.7,60.5,53.9,99,93,79,30.15,29.82,0,0,0,0.23
2013-10-8,65.1,55.2,44.3,53.9,46.8,40.9,91,75,47,30.40,29.93,0,0,0,0.00
2013-10-9,63.1,49.8,41.0,51.0,43.9,38.3,92,81,58,30.50,30.39,0,0,0,0.00
2013-10-10,59.2,50.9,41.8,53.8,47.6,39.9,96,89,80,30.39,30.21,0,0,0,0.00
2013-10-11,70.3,55.9,47.4,59.2,49.6,45.6,96,81,51,30.20,30.12,0,0,0,0.00
2013-10-12,57.7,53.0,47.4,55.5,50.7,45.5,96,92,80,30.41,30.17,0,0,0,0.00
2013-10-13,57.1,50.9,41.8,51.0,47.4,39.6,96,88,78,30.46,30.40,0,0,0,0.00
2013-10-14,64.4,49.6,35.5,50.2,42.0,33.8,97,78,44,30.43,30.28,0,0,0,0.00
2013-10-15,66.7,56.4,49.2,55.7,50.6,45.6,93,82,64,30.29,30.19,0,0,0,0.00
2013-10-16,58.4,53.3,47.8,53.5,50.4,45.8,97,90,79,30.20,29.94,0,0,0,0.00
2013-10-17,72.6,60.9,50.5,60.8,56.2,48.7,98,86,61,29.94,29.74,0,0,0,0.04
2013-10-18,65.8,58.7,46.0,60.3,51.4,40.8,97,78,54,29.93,29.63,0,0,0,0.03
2013-10-19,65.4,53.2,42.6,47.9,43.2,39.1,90,71,46,30.00,29.77,0,0,0,0.00
2013-10-20,61.7,51.8,41.7,49.9,42.5,34.5,95,73,40,30.04,29.71,0,0,0,0.03
2013-10-21,65.6,52.4,39.4,45.5,40.2,35.2,91,65,41,30.14,30.01,0,0,0,0.00
2013-10-22,64.4,53.6,45.0,52.3,45.9,37.5,96,76,60,30.01,29.74,0,0,0,0.00
2013-10-23,49.2,43.5,35.6,37.6,35.1,32.2,89,73,54,29.82,29.62,0,0,0,0.00
2013-10-24,52.6,44.1,36.6,35.9,30.8,25.1,82,61,37,29.92,29.68,0,0,0,0.00
2013-10-25,49.5,39.9,32.5,35.2,30.0,27.2,90,69,49,30.19,29.92,0,0,0,0.00
2013-10-26,53.8,42.8,32.6,36.1,31.2,27.5,89,66,38,30.19,29.90,0,0,0,0.00
2013-10-27,54.9,46.1,40.1,39.6,34.8,30.7,83,65,48,30.09,29.82,0,0,0,0.01
2013-10-28,57.0,44.0,35.1,38.0,32.9,26.4,85,66,46,30.37,30.09,0,0,0,0.00
2013-10-29,49.2,36.2,28.4,27.3,23.9,20.8,81,63,34,30.47,30.37,0,0,0,0.00
2013-10-30,53.5,41.3,31.3,42.4,34.1,26.7,91,76,64,30.40,30.22,0,0,0,0.01
2013-10-31,56.6,43.5,35.9,53.3,41.8,33.7,97,94,87,30.27,30.05,0,0,0,0.00
2013-11-30,31.4,28.5,26.9,21.2,17.6,15.1,76,64,54,30.68,30.45,0,0,0,0.00
2013-12-1,35.3,32.3,27.8,34.3,29.7,21.2,96,90,76,30.45,30.05,0,0,0,0.10
2013-12-2,39.1,36.7,35.2,38.1,35.7,34.2,97,96,95,30.04,29.94,0,0,0,0.01
2013-12-3,50.3,38.0,30.6,39.9,33.8,27.9,97,86,60,29.98,29.87,0,0,0,0.00
2013-12-4,45.3,34.3,29.1,31.6,28.6,26.3,93,81,57,30.22,29.98,0,0,0,0.00
2013-12-5,53.7,39.4,29.7,53.1,37.6,27.1,98,93,84,30.23,29.95,0,0,0,0.03
2013-12-6,53.9,46.7,32.9,53.3,44.6,31.2,98,93,81,30.16,29.88,0,0,0,0.24
2013-12-7,36.4,31.5,25.0,32.3,28.2,20.4,96,88,73,30.48,30.09,0,0,0,0.15
2013-12-8,29.6,25.8,18.2,20.4,18.2,14.6,89,73,60,30.62,30.48,0,0,0,0.00
2013-12-9,32.8,29.1,24.6,31.6,26.7,18.0,96,91,71,30.52,29.93,0,0,0,0.16
2013-12-10,33.3,30.0,21.9,32.0,27.6,16.8,100,91,78,30.02,29.81,0,0,0,0.01
2013-12-11,29.0,22.8,17.3,20.0,17.6,14.5,89,81,67,30.24,30.02,0,0,0,0.00
2013-12-12,24.4,19.2,13.9,17.4,9.7,3.3,86,67,48,30.30,30.09,0,0,0,0.00
2013-12-13,27.6,20.1,14.0,19.0,12.0,6.7,79,70,60,30.41,30.03,0,0,0,0.00
2013-12-14,15.2,12.5,9.8,11.2,4.9,-1.8,89,72,48,30.62,30.18,0,0,0,0.00
2013-12-15,27.4,21.6,13.9,23.8,18.7,11.5,93,89,82,30.17,29.48,0,0,0,0.00
2013-12-16,26.5,21.3,12.5,20.3,12.5,6.2,89,69,52,30.23,29.77,0,0,0,0.01
2013-12-17,16.6,10.0,0.7,14.4,5.9,-3.2,92,83,74,30.30,30.00,0,0,0,0.00
2013-12-18,31.4,24.0,15.0,22.9,19.2,12.3,93,82,67,30.12,29.92,0,0,0,0.13
2013-12-19,40.7,32.0,21.5,26.8,23.4,17.8,87,71,55,30.14,29.99,0,0,0,0.18
2013-12-20,51.1,41.3,32.8,35.8,31.4,26.4,79,68,54,30.14,29.93,0,0,0,0.45
2013-12-21,54.0,47.1,40.7,47.2,41.6,33.2,91,81,73,29.99,29.88,0,0,0,0.01
2013-12-22,63.9,46.2,34.2,60.3,44.5,32.9,100,94,76,30.03,29.78,0,0,0,0.01
2013-12-23,38.8,33.9,31.6,38.0,33.0,30.6,97,96,95,30.11,29.99,0,0,0,0.55
2013-12-24,36.6,30.7,23.8,35.8,23.6,13.8,97,75,55,30.23,30.07,0,0,0,0.00
2013-12-25,23.6,18.1,13.1,14.2,6.4,3.1,73,60,45,30.56,30.23,0,0,0,0.00
2013-12-26,29.0,23.3,15.1,26.5,18.5,7.7,91,82,69,30.52,30.13,0,0,0,0.00
2013-12-27,31.7,26.6,20.1,22.6,20.2,17.0,90,77,63,30.31,30.23,0,0,0,0.02
2013-12-28,45.0,34.4,26.5,29.4,25.3,21.1,82,70,52,30.25,30.03,0,0,0,0.04
2013-12-29,40.2,36.5,33.9,35.3,30.5,27.9,96,79,70,30.06,29.45,0,0,0,1.24
2013-12-30,39.7,30.8,17.2,34.5,23.6,9.8,96,76,49,30.18,29.56,0,0,0,0.00
2013-12-31,24.8,18.2,11.5,15.4,9.6,3.1,81,69,52,30.22,30.05,0,0,0,0.00
2014-1-1,26.7,20.1,14.9,14.0,9.0,5.2,80,62,49,30.40,30.22,0,0,0,0.00
2014-1-2,19.9,11.5,0.4,15.0,7.7,-3.3,87,84,79,30.38,29.87,0,0,0,0.00